Tracking 22441 objects as of 28-Feb-2021
HD Live streaming from Space Station
objects crossing your sky now

DELTA 1 DEB

Track DELTA 1 DEB now!
10-day predictions


NORAD ID: 21346
Int'l Code: 1975-052BQ
Perigee: 854.1 km
Apogee: 1,065.5 km
Inclination: 98.9 °
Period: 104.1 minutes
Semi major axis: 7330 km
RCS: 0.0155 m2 (small)
Launch date: June 12, 1975
Source: United States (US)
Launch site: AIR FORCE WESTERN TEST RANGE (AFWTR)

Note: This is SATELLITE DEBRIS
aabbcc
Your satellite tracking list
Your tracking list is empty




NASA's NSSDC Master Catalog

Two Line Element Set (TLE):
1 21346U 75052BQ  21059.37624190  .00000224  00000-0  22245-3 0  9990
2 21346  98.8718 101.0209 0144152  46.3550 314.9454 13.83168145455882
Source of the keplerian elements: AFSPC